| time (UTC) | temp F | wind direction | speed knots | gust knots | rain 1hr in | rain 24hr in | rain mn in | humidity % | barometer mb |
| 20260507041734 | 65 | 90 | 4.3 | 9.6 | 0.00 | 0.00 | 0.00 | 80 | 1009.1 |
| 20260507031724 | 65 | 68 | 7.0 | 7.8 | 0.00 | 0.00 | 0.00 | 80 | 1009.2 |
| 20260507030232 | 64 | 45 | 3.5 | 7.8 | 0.00 | 0.00 | 0.00 | 80 | 1009.4 |
| 20260507022227 | 65 | 90 | 4.3 | 7.0 | 0.00 | 0.00 | 0.00 | 80 | 1009.4 |
| 20260507020230 | 64 | 68 | 6.1 | 9.6 | 0.00 | 0.00 | 0.00 | 79 | 1009.7 |
| 20260507015736 | 65 | 68 | 3.5 | 9.6 | 0.00 | 0.00 | 0.00 | 80 | 1009.8 |
| 20260507012233 | 65 | 68 | 3.5 | 7.0 | 0.00 | 0.00 | 0.00 | 79 | 1010.3 |
| 20260507002733 | 65 | 68 | 4.3 | 7.8 | 0.00 | 0.00 | 0.00 | 80 | 1010.1 |
| 20260507001733 | 64 | 68 | 3.5 | 6.1 | 0.00 | 0.00 | 0.00 | 81 | 1010.2 |
| 20260507000226 | 64 | 45 | 3.5 | 3.5 | 0.00 | 0.00 | 0.00 | 81 | 1010.0 |
| 20260506221227 | 62 | 135 | 0.0 | 1.7 | 0.00 | 0.00 | 0.00 | 80 | 1010.6 |
| 20260506213228 | 63 | 113 | 0.0 | 1.7 | 0.00 | 0.00 | 0.00 | 80 | 1010.9 |
| 20260506212226 | 63 | 203 | 0.0 | 1.7 | 0.00 | 0.00 | 0.00 | 79 | 1011.0 |
| 20260506210229 | 63 | 135 | 0.0 | 1.7 | 0.00 | 0.00 | 0.00 | 79 | 1010.9 |
| 20260506205234 | 63 | 113 | 0.9 | 3.5 | 0.00 | 0.00 | 0.00 | 78 | 1010.8 |
| 20260506202236 | 63 | 135 | 0.0 | 3.5 | 0.00 | 0.00 | 0.00 | 78 | 1010.9 |
| 20260506194736 | 64 | 90 | 0.0 | 3.5 | 0.00 | 0.00 | 0.00 | 78 | 1010.2 |
| 20260506192725 | 64 | 113 | 1.7 | 6.1 | 0.00 | 0.00 | 0.00 | 77 | 1010.0 |
| 20260506190225 | 64 | 113 | 1.7 | 6.1 | 0.00 | 0.00 | 0.00 | 77 | 1009.8 |
| 20260506182229 | 65 | 90 | 3.5 | 9.6 | 0.00 | 0.00 | 0.00 | 75 | 1009.3 |
| 20260506181226 | 65 | 135 | 3.5 | 9.6 | 0.00 | 0.00 | 0.00 | 75 | 1009.3 |
| 20260506180735 | 65 | 135 | 3.5 | 9.6 | 0.00 | 0.00 | 0.00 | 75 | 1009.4 |
| 20260506174739 | 66 | 113 | 2.6 | 7.8 | 0.00 | 0.00 | 0.00 | 75 | 1009.3 |
| 20260506172229 | 66 | 113 | 3.5 | 9.6 | 0.00 | 0.00 | 0.00 | 75 | 1009.4 |
| 20260506170225 | 66 | 90 | 5.2 | 12.2 | 0.00 | 0.00 | 0.00 | 75 | 1009.3 |
| 20260506162725 | 67 | 68 | 6.1 | 12.2 | 0.00 | 0.00 | 0.00 | 73 | 1009.5 |
| 20260506161232 | 67 | 90 | 7.0 | 12.2 | 0.00 | 0.00 | 0.00 | 73 | 1009.5 |
| 20260506150732 | 68 | 68 | 6.1 | 13.9 | 0.00 | 0.00 | 0.00 | 72 | 1009.5 |
| 20260506141728 | 69 | 68 | 6.1 | 13.0 | 0.00 | 0.00 | 0.00 | 72 | 1009.5 |
| 20260506133236 | 69 | 45 | 7.0 | 11.3 | 0.00 | 0.00 | 0.00 | 71 | 1009.6 |
| 20260506124231 | 70 | 68 | 8.7 | 13.0 | 0.00 | 0.00 | 0.00 | 70 | 1010.3 |
| 20260506123738 | 70 | 68 | 7.0 | 13.0 | 0.00 | 0.00 | 0.00 | 70 | 1010.3 |
| 20260506115739 | 70 | 90 | 6.1 | 13.0 | 0.00 | 0.00 | 0.00 | 70 | 1010.4 |
| 20260506114737 | 69 | 90 | 5.2 | 12.2 | 0.00 | 0.00 | 0.00 | 73 | 1010.2 |
| 20260506111225 | 70 | 45 | 7.0 | 12.2 | 0.00 | 0.00 | 0.00 | 71 | 1010.3 |
| 20260506101228 | 70 | 45 | 7.8 | 14.8 | 0.00 | 0.00 | 0.00 | 77 | 1010.3 |
| 20260506100237 | 69 | 68 | 7.0 | 15.6 | 0.00 | 0.00 | 0.00 | 76 | 1010.5 |
| 20260506094734 | 69 | 45 | 4.3 | 13.9 | 0.00 | 0.00 | 0.00 | 76 | 1010.5 |
| 20260506094225 | 68 | 45 | 7.0 | 13.0 | 0.00 | 0.00 | 0.00 | 77 | 1010.6 |
| 20260506093230 | 67 | 23 | 7.8 | 13.9 | 0.00 | 0.00 | 0.00 | 76 | 1010.5 |
| 20260506083237 | 68 | 45 | 6.1 | 12.2 | 0.00 | 0.00 | 0.00 | 76 | 1010.1 |
| 20260506082227 | 69 | 45 | 5.2 | 12.2 | 0.00 | 0.00 | 0.00 | 76 | 1010.0 |
| 20260506073233 | 68 | 68 | 6.1 | 7.8 | 0.00 | 0.00 | 0.00 | 74 | 1010.2 |
| 20260506061228 | 66 | 45 | 5.2 | 11.3 | 0.00 | 0.00 | 0.00 | 78 | 1009.9 |
| 20260506051227 | 64 | 45 | 7.0 | 9.6 | 0.00 | 0.00 | 0.00 | 86 | 1009.5 |